Location: Oberkirch
(48.5323°N, 8.0787°E)
Time: 23:31:04
(UTC+00:00)

AO-85 - Visible Passes

Search period start: 14 March 2026 00:00
Search period end: 24 March 2026 00:00
Orbit: 507 x 686 km, 64.8° (Epoch: 14 March)

Date Brightness Start Highest point End Pass type
(mag) Time Alt. Az. Time Alt. Az. Time Alt. Az.
14 Mar ? 03:55:24 22° S 03:57:44 50° ESE 04:01:32 10° NE visible
15 Mar ? 02:29:00 11° ESE 02:29:00 11° ESE 02:30:00 10° E visible
15 Mar ? 04:05:41 27° SW 04:07:46 88° SE 04:11:41 10° NE visible
16 Mar ? 02:39:11 19° ESE 02:39:11 19° ESE 02:41:38 10° ENE visible
16 Mar ? 04:15:51 26° WSW 04:17:52 54° NW 04:21:42 10° NNE visible
17 Mar ? 02:49:16 31° ESE 02:49:16 31° ESE 02:52:12 10° NE visible
17 Mar ? 04:25:55 20° W 04:28:02 33° NW 04:31:37 10° NNE visible
18 Mar ? 02:59:14 50° E 02:59:14 50° E 03:02:28 10° NE visible
18 Mar ? 04:35:54 14° W 04:38:17 23° NW 04:41:26 10° NNE visible
19 Mar ? 03:09:09 66° NNE 03:09:09 66° NNE 03:12:33 10° NE visible
19 Mar ? 04:46:03 10° WNW 04:48:37 16° NNW 04:51:08 10° N visible
20 Mar ? 01:42:21 11° ENE 01:42:21 11° ENE 01:42:38 10° ENE visible
20 Mar ? 03:19:00 47° NNW 03:19:00 47° NNW 03:22:31 10° NNE visible
20 Mar ? 04:57:19 10° NW 04:59:00 12° NNW 05:00:41 10° N visible
21 Mar ? 01:52:09 16° ENE 01:52:09 16° ENE 01:53:05 10° NE visible
21 Mar ? 03:28:48 31° NW 03:28:54 31° NW 03:32:22 10° NNE visible
22 Mar ? 02:01:53 21° NE 02:01:53 21° NE 02:03:16 10° NE visible
22 Mar ? 03:38:32 20° NW 03:39:07 21° NW 03:42:08 10° NNE visible
23 Mar ? 02:11:35 25° NNE 02:11:35 25° NNE 02:13:17 10° NE visible
23 Mar ? 03:48:14 14° NW 03:49:25 15° NNW 03:51:47 10° N visible
